Simultaneous Nadir Overpasses (SNOs) Predictions

Prediction of SNOs between GOES-15 and TERRA Satellite Orbit:

Table of predicted SNOs for the next 14.0 days since TLE Epoch: 1/28/2017
Index Date Time (GOES-15) GOES-15 Lat,Lon TERRA Lat,Lon Distance(km) Time Diff (sec)
1 01/28/2017 07:49:01 -0.03,-135.30 -0.85,-139.24 447.47 80
2 01/29/2017 19:12:46 0.03,-135.29 -0.84,-131.08 477.98 80
3 01/30/2017 07:36:50 -0.04,-135.33 -0.21,-136.29 107.94 80
4 02/01/2017 07:21:58 -0.04,-135.36 0.37,-133.32 231.06 80
5 02/01/2017 19:45:54 0.04,-135.33 0.71,-138.48 358.06 80
6 02/03/2017 19:33:43 0.04,-135.35 0.06,-135.53 20.18 80
7 02/05/2017 19:18:52 0.03,-135.37 -0.58,-132.58 316.94 80
8 02/06/2017 07:42:56 -0.04,-135.40 -0.53,-137.77 269.83 80
9 02/08/2017 07:28:05 -0.03,-135.40 0.12,-134.82 66.69 80
10 02/10/2017 07:18:33 -0.04,-135.41 0.71,-131.86 402.76 80
11 02/10/2017 19:39:49 0.04,-135.38 0.38,-137.02 186.94 80




NCC Satellite Simultaneous Nadir Overpasses (SNOs) Prediction Service
